Regional Weather Roundup
Issued by NWS

Home | Current Version | Previous Version | Text Only | Print | Product List | Glossary On
Versions: 1 2 3 4 5 6 7 8 9 10 11 12 13 14 15 16 17 18 19 20 21 22 23 24 25 26 27 28 29 30 31 32 33 34 35 36 37 38 39 40 41 42 43 44 45 46 47 48 49 50
000
ASUS45 KBOI 021310
RWRID
WEATHER ROUNDUP FOR IDAHO
NATIONAL WEATHER SERVICE BOISE ID
700 AM MDT TUE SEP 02 2014

NOTE: "FAIR" INDICATES FEW OR NO CLOUDS BELOW 12000 FEET
WITH NO SIGNIFICANT WEATHER AND/OR OBSTRUCTIONS TO VISIBILITY

IDZ012-014-021400-
SOUTHWEST IDAHO


CITY           SKY/WX    TMP DP  RH WIND       PRES   REMARKS
BOISE          CLEAR     56  35  45 SE6       29.95S
CALDWELL       CLEAR     46  32  57 E3        29.97S
MOUNTAIN HOME  CLEAR     48  34  59 E8        29.97S
$$

IDZ016-017-021400-
SOUTHCENTRAL IDAHO


CITY           SKY/WX    TMP DP  RH WIND       PRES   REMARKS
BURLEY         CLEAR     46  40  79 S3        30.02S
JEROME         CLEAR     47  38  71 CALM      30.02R
TWIN FALLS     CLEAR     52  39  61 S12       30.01S
$$

IDZ019>023-021400-
SOUTHEAST IDAHO


CITY           SKY/WX    TMP DP  RH WIND       PRES   REMARKS
IDAHO FALLS    CLEAR     47  37  68 SW6       30.06S
POCATELLO      CLEAR     40  38  93 N5        30.05S
REXBURG        CLEAR     40  37  89 NE5       30.06S
$$

IDZ006-010-011-018-031-032-021400-
CENTRAL IDAHO MOUNTAINS


CITY           SKY/WX    TMP DP  RH WIND       PRES   REMARKS
MCCALL         CLEAR     38  33  82 CALM      30.03F
HAILEY         CLEAR     43  32  65 W12       30.09S
STANLEY          N/A     28  25  88 CALM      30.16R
SALMON         PTCLDY    41  37  87 CALM      30.03S
CHALLIS        CLEAR     43  34  70 E5        30.06R
$$

IDZ002-004-006-007-026-021400-
NORTHERN IDAHO


CITY           SKY/WX    TMP DP  RH WIND       PRES   REMARKS
LEWISTON       CLEAR     54  43  66 E5        29.90S
LOWELL           N/A     48  45  89 N3        30.00S
COEUR D`ALENE  PTCLDY    54  45  71 S8        29.87F
MULLAN PASS    MOCLDY    44  37  76 VRB6      29.99S
$$



USA.gov is the U.S. government's official web portal to all federal, state and local government web resources and services.